Location: Newark
(7.0858°N, 171.3717°E)
Time: 17:37:57
(UTC+00:00)

Altair - Pass Details

Date: 26 November 2020
Orbit: 1501 x 1682 km, 47.2° (Epoch: 20 January)

Event Time Altitude Azimuth Distance (km) Brightness Sun altitude
Exits shadow 18:04:18 - 319° (NW) 4,479 9.4 -6.7°
Reaches altitude 10° 18:06:43 10° 319° (NW) 3,700 9.0 -6.1°
Maximum altitude 18:16:07 88° 232° (SW) 1,578 7.6 -3.9°
Drops below altitude 10° 18:25:55 10° 141° (SE) 3,846 10.7 -1.7°
Sets 18:29:05 0° 141° (SE) 4,856 11.3 -0.9°
